Location: Newark
(51.3318°N, 0.0053°E)
Time: 11:37:39
(UTC+00:00)

MOZHAYETS 4 - Pass Details

Date: 01 July 2022
Orbit: 660 x 679 km, 98.2° (Epoch: 10 August)

Event Time Altitude Azimuth Distance (km) Brightness Sun altitude
Rises 01:00:23 0° 129° (SE) 3,025 10.8 -14.5°
Reaches altitude 10° 01:02:54 10° 116° (ESE) 2,112 10.2 -14.4°
Maximum altitude 01:06:41 26° 61° (ENE) 1,336 9.8 -14.3°
Drops below altitude 10° 01:10:28 10° 6° (N) 2,115 11.7 -14.1°
Sets 01:12:59 0° 354° (N) 3,030 12.4 -14.0°
